Location: Asheville, NC
(35.6000°N, 82.5500°W)
Time: 00:35:12
(UTC-04:00)

ITAMSAT 1 - Pass Details

Date: 10 March 2018
Orbit: 784 x 796 km, 98.9° (Epoch: 18 June)

Event Time Altitude Azimuth Distance (km) Brightness Sun altitude
Rises 03:22:38 0° 32° (NNE) 3,301 11.6 -41.1°
Reaches altitude 10° 03:25:42 10° 51° (NE) 2,365 10.8 -40.6°
Enters shadow 03:28:48 18° 87° (E) 1,852 10.0 -40.0°
